DateTimeUTC,F1_A11,F1_S11,BsB_S11,BsG_S11,BsR_S11,BbsB_S11,BbsG_S11,BbsR_S11,BaB_A11,BaG_A11,BaR_A11,Tu_S11,T_S11,Uu_S11,U_S11,P_S11,T1_A11
2021-07-16T04:00:00Z,00000200,20000000,,,,,,,0000.06,-000.24,-000.04,18.1,24.9,04.6,03.0,0668.0,31.0
2021-07-16T04:01:00Z,00000200,20000000,,,,,,,-000.04,-000.12,-000.31,18.1,24.9,04.5,03.0,0668.0,31.0
2021-07-16T04:02:00Z,00000200,20000000,,,,,,,0000.05,0000.26,-000.04,18.0,24.9,04.3,02.8,0668.0,31.0
2021-07-16T04:03:00Z,00000200,60000000,,,,,,,0000.09,-000.53,-000.20,18.0,24.9,04.3,02.8,0668.0,31.0
2021-07-16T04:04:00Z,00000200,40000000,0000.88,0000.05,-000.14,-000.21,0000.39,0000.09,-000.45,0000.11,-000.09,18.0,24.6,04.2,02.8,0669.0,31.0
2021-07-16T04:05:00Z,00000200,00000000,0000.62,0000.18,-000.09,-000.33,0000.46,-000.05,0000.18,0000.04,0000.27,18.0,24.6,04.1,02.8,0669.1,31.0
2021-07-16T04:06:00Z,00000200,00000000,-000.00,0000.49,0000.35,0000.02,0000.11,0000.12,0000.16,-000.02,0000.08,18.1,24.5,04.1,02.8,0669.1,31.0
2021-07-16T04:07:00Z,00000200,00000000,0000.27,-000.04,0000.22,0000.03,0000.19,-000.19,0000.09,0000.29,0000.07,18.1,24.5,04.2,02.8,0669.2,31.0
2021-07-16T04:08:00Z,00000200,00000000,0000.96,0000.30,0000.14,0000.16,0000.15,-000.11,-000.11,-000.19,-000.29,18.2,24.6,04.1,02.7,0669.2,31.0
2021-07-16T04:09:00Z,00000200,00000000,0000.18,0000.36,-000.05,-000.15,0000.21,-000.18,0000.11,0000.30,0000.04,18.3,24.6,04.0,02.7,0669.2,31.0
2021-07-16T04:10:00Z,00000200,00000000,0000.62,0000.31,-000.18,-000.08,0000.36,-000.26,-000.04,0000.06,-000.02,18.3,24.7,04.0,02.7,0669.2,31.0
2021-07-16T04:11:00Z,00000200,00000000,0000.05,0000.11,0000.19,0000.42,0000.15,-000.16,-000.22,-000.23,0000.03,18.4,24.7,03.9,02.7,0669.2,31.0
2021-07-16T04:12:00Z,00000200,00000000,0000.58,0000.18,-000.02,0000.48,0000.14,-000.02,-000.05,-000.42,0000.15,18.3,24.7,03.9,02.6,0669.2,31.0
2021-07-16T04:13:00Z,00000200,00000000,0000.65,0000.37,0000.29,-000.34,0000.19,0000.03,0000.10,-000.16,-000.24,18.3,24.7,03.9,02.6,0669.3,31.0
2021-07-16T04:14:00Z,00000200,00000000,0000.16,0000.12,-000.45,-000.21,-000.00,-000.69,-000.45,0000.24,0000.28,18.2,24.7,03.8,02.6,0669.3,31.0
2021-07-16T04:15:00Z,00000200,00000000,0000.26,0000.28,-000.23,-000.01,-000.09,-000.15,0000.13,-000.12,-000.47,18.2,24.6,03.7,02.5,0669.3,31.0
2021-07-16T04:16:00Z,00000200,00000000,-000.23,0000.00,-000.25,0000.09,0000.26,-000.13,-000.04,0000.05,-000.14,18.2,24.6,03.6,02.4,0669.4,31.0
2021-07-16T04:17:00Z,00000200,00000000,0000.09,0000.28,-000.17,-000.13,-000.08,0000.04,-000.16,-000.47,-000.39,18.1,24.6,03.6,02.4,0669.4,31.0
2021-07-16T04:18:00Z,00000200,00000000,-000.20,-000.02,0000.22,0000.06,0000.03,-000.00,-000.37,-000.08,-000.01,18.1,24.6,03.5,02.4,0669.3,31.0
2021-07-16T04:19:00Z,00000200,00000000,-000.09,0000.22,0000.16,0000.38,-000.02,0000.08,0000.02,0000.03,0000.23,18.1,24.5,03.5,02.3,0669.4,31.0
2021-07-16T04:20:00Z,00000200,00000000,0000.98,0000.27,0000.32,0000.04,0000.20,0000.07,0000.27,0000.09,0000.00,18.1,24.5,03.4,02.3,0669.4,31.0
2021-07-16T04:21:00Z,00000200,00000000,0000.52,0000.13,-000.03,0000.37,-000.03,-000.10,-000.07,-000.06,-000.08,18.1,24.5,03.4,02.3,0669.4,31.0
2021-07-16T04:22:00Z,00000200,00000000,0000.21,0000.08,-000.11,0000.13,-000.11,-000.10,0000.12,0000.29,0000.13,18.2,24.5,03.4,02.3,0669.4,31.0
2021-07-16T04:23:00Z,00000200,00000000,-000.02,0000.01,-000.31,0000.04,-000.10,-000.14,0000.17,-000.07,-000.15,18.3,24.6,03.4,02.3,0669.4,31.0
2021-07-16T04:24:00Z,00000200,00000000,0000.31,0000.01,-000.32,0000.23,0000.26,-000.09,-000.55,-000.16,0000.23,18.4,24.6,03.4,02.3,0669.4,31.0
2021-07-16T04:25:00Z,00000200,00000000,-000.82,0000.07,0000.31,0000.14,0000.02,0000.25,0000.31,-000.15,-000.25,18.4,24.7,03.3,02.2,0669.4,31.0
2021-07-16T04:26:00Z,00000200,00000000,0000.54,0000.12,-000.09,-000.05,0000.16,-000.11,-000.33,0000.08,-000.03,18.4,24.7,03.2,02.1,0669.4,31.0
2021-07-16T04:27:00Z,00000200,00000000,0000.33,0000.27,-000.26,0000.02,0000.29,-000.08,-000.06,-000.31,-000.01,18.4,24.7,03.1,02.1,0669.4,31.0
2021-07-16T04:28:00Z,00000200,00000000,0000.49,0000.05,0000.04,0000.16,0000.38,-000.08,0000.14,0000.09,-000.08,18.3,24.6,03.2,02.2,0669.4,31.0
2021-07-16T04:29:00Z,00000200,00000000,-000.30,0000.26,0000.14,-000.03,0000.30,-000.32,0000.35,0000.28,0000.13,18.3,24.6,03.3,02.2,0669.4,31.0
2021-07-16T04:30:00Z,00000200,00000000,0000.26,-000.23,-000.18,0000.34,0000.22,-000.17,-000.40,0000.07,0000.04,18.3,24.6,03.3,02.3,0669.4,31.0
2021-07-16T04:31:00Z,00000200,00000000,0000.63,0000.42,-000.05,-000.39,0000.02,-000.11,0000.16,-000.24,-000.09,18.2,24.6,03.4,02.3,0669.4,31.0
2021-07-16T04:32:00Z,00000200,00000000,0000.33,0000.09,-000.29,0000.29,-000.07,0000.09,0000.05,0000.22,0000.03,18.2,24.6,03.3,02.2,0669.4,31.0
2021-07-16T04:33:00Z,00000200,00000000,0000.16,0000.04,0000.05,0000.13,0000.16,-000.02,0000.02,-000.24,-000.03,18.2,24.5,03.3,02.2,0669.4,31.0
2021-07-16T04:34:00Z,00000200,00000000,0000.40,0000.09,-000.11,-000.47,0000.34,-000.30,-000.10,0000.10,-000.08,18.1,24.5,03.3,02.2,0669.4,31.0
2021-07-16T04:35:00Z,00000200,00000000,0000.09,0000.26,0000.21,0000.12,0000.32,0000.02,-000.03,0000.07,0000.15,18.1,24.5,03.2,02.2,0669.5,31.0
2021-07-16T04:36:00Z,00000200,00000000,-000.26,0000.28,-000.17,-000.17,0000.20,-000.71,0000.30,0000.13,0000.22,18.1,24.5,03.3,02.3,0669.4,31.0
2021-07-16T04:37:00Z,00000200,00000000,0000.02,0000.21,0000.24,-000.36,0000.05,-000.11,0000.05,0000.17,-000.13,18.2,24.5,03.3,02.2,0669.5,31.0
2021-07-16T04:38:00Z,00000200,00000000,0000.47,0000.33,-000.14,0000.20,0000.09,0000.01,-000.17,0000.04,-000.08,18.3,24.6,03.4,02.3,0669.4,31.0
2021-07-16T04:39:00Z,00000200,00000000,0000.31,0000.25,0000.19,0000.10,0000.04,0000.05,0000.50,0000.11,0000.66,18.4,24.6,03.4,02.3,0669.4,31.0
2021-07-16T04:40:00Z,00000200,00000000,0000.50,0000.03,0000.15,-000.26,0000.16,0000.09,0000.08,-000.04,0000.01,18.4,24.7,03.5,02.4,0669.4,31.0
2021-07-16T04:41:00Z,00000200,00000000,0000.02,0000.44,-000.01,-000.04,0000.09,-000.11,-000.43,0000.03,-000.44,18.4,24.7,03.4,02.3,0669.4,31.0
2021-07-16T04:42:00Z,00000200,00000000,0000.48,0000.27,0000.17,-000.04,0000.10,-000.10,0000.12,-000.04,-000.04,18.3,24.7,03.4,02.3,0669.5,31.0
2021-07-16T04:43:00Z,00000200,00000000,-000.33,0000.18,-000.12,0000.08,-000.02,-000.15,0000.07,0000.05,0000.08,18.3,24.6,03.4,02.3,0669.5,31.0
2021-07-16T04:44:00Z,00000200,00000000,0001.23,0000.29,0000.05,0000.13,0000.24,0000.15,-000.13,-000.13,0000.01,18.2,24.6,03.4,02.3,0669.5,31.0
2021-07-16T04:45:00Z,00000200,00000000,0000.61,-000.02,-000.30,-000.45,0000.54,0000.01,0000.27,0000.21,0000.05,18.2,24.6,03.5,02.4,0669.5,31.0
2021-07-16T04:46:00Z,00000200,00000000,0000.87,0000.06,0000.13,0000.25,0000.27,-000.44,0000.28,0000.16,0000.14,18.2,24.5,03.5,02.4,0669.5,31.0
2021-07-16T04:47:00Z,00000200,00000000,0000.69,0000.01,0000.33,-000.08,0000.34,-000.04,-000.28,0000.10,-000.17,18.1,24.5,03.6,02.4,0669.5,31.0
2021-07-16T04:48:00Z,00000200,00000000,-000.11,-000.20,-000.11,0000.14,0000.25,-000.13,0000.03,-000.36,0000.21,18.1,24.5,03.6,02.4,0669.6,31.0
2021-07-16T04:49:00Z,00000200,00000000,0000.03,0000.10,-000.01,0000.15,0000.29,0000.06,0000.08,0000.19,-000.11,18.1,24.5,03.6,02.4,0669.6,31.0
2021-07-16T04:50:00Z,00000200,00000000,0000.07,0000.11,0000.03,-000.01,0000.37,-000.24,-000.13,-000.14,-000.12,18.0,24.5,03.6,02.4,0669.6,31.0
2021-07-16T04:51:00Z,00000200,00000000,0000.47,0000.10,-000.45,-000.40,0000.04,-000.12,-000.00,-000.04,0000.52,18.1,24.5,03.5,02.4,0669.6,31.0
2021-07-16T04:52:00Z,00000200,00000000,-000.05,0000.27,-000.02,-000.24,0000.03,-000.13,0000.20,0000.32,-000.28,18.1,24.5,03.5,02.4,0669.6,31.0
2021-07-16T04:53:00Z,00000200,00000000,0000.87,-000.12,0000.10,-000.12,0000.23,-000.40,-000.08,-000.08,0000.19,18.2,24.6,03.4,02.3,0669.6,31.0
2021-07-16T04:54:00Z,00000200,00000000,0000.33,0000.48,0000.01,0000.26,0000.18,-000.16,0000.10,0000.31,-000.20,18.3,24.6,03.4,02.3,0669.6,31.0
2021-07-16T04:55:00Z,00000200,00000000,0000.94,0000.37,0000.01,-000.27,0000.18,0000.09,0000.08,-000.11,-000.09,18.3,24.6,03.4,02.3,0669.6,31.0
2021-07-16T04:56:00Z,00000200,00000000,0000.26,0000.05,-000.22,0000.16,0000.14,-000.13,0000.04,-000.39,0000.09,18.3,24.7,03.5,02.3,0669.6,31.0
2021-07-16T04:57:00Z,00000200,40000000,,,,,,,0000.28,0000.34,0000.29,18.4,24.7,03.2,02.2,0669.7,31.0
2021-07-16T04:58:00Z,00000200,60000000,,,,,,,-000.30,0000.02,-000.26,18.1,24.8,03.6,02.4,0668.6,31.0
2021-07-16T04:59:00Z,00000200,20000000,,,,,,,0000.12,0000.12,0000.35,18.0,24.9,03.4,02.2,0668.6,31.0
